SCP
0 0 0 0 0 0 1 1 1 1 0 0 0 0 0 0 0 0 0 0 0 0
0 0 0 0 0 0 0 0 0 0 0 0 0 0 0 0 0 0 0 0 0 0
0 0 0 0 0 0 0 0 0 0 0 0 0 0 0 0 0 0 0 0 0 0
0 0 0 0 0 0 0 0 0 0 0 0 0 0 0 0 0 0 0 0 0 0
0 0 0 0 0 0 0 0 0 0 0 0 0 0 0 0 0 0 0 0 0 0
0 0 0 0 0 0 0 0 0 0 0 0 0 0 0 0 0 0 0 0 0 0
0 0 0 0 0 0 0 0 0 0 0 0 0 0 0 0 0 0 0 0 0 0
0 0 0 0 0 0 0 0 0 0 0 0 0 0 0 0 0 0 0 0 0 0
0 0 0 0 0 0 0 0 0 -0 0 0 0 0 0 0 0 0 0 0 0 0
0 0 0 0 0 0 0 0 0 -0 0 0 0 0 0 0 0 0 0 0 0 0
0 0 0 0 0 0 0 0 0 0 0 0 0 0 0 0 0 0 0 0 0 0
0 0 0 0 0 0 0 0 0 0 0 0 0 0 0 0 0 0 0 0 0 0
0 0 0 0 0 0 0 0 0 0 0 0 0 0 0 0 0 0 0 0 0 0
0 0 0 0 0 0 0 0 0 0 0 0 0 0 0 0 0 0 0 0 0 0
Wind_Speed_500mb
103 103 95 92 80 64 74 72 62 78 77 81 83 86 86 88 90 79 60 56 57 59
82 84 89 86 79 74 74 75 63 69 58 61 66 64 62 72 49 50 65 60 64 68
46 54 68 74 74 77 74 76 69 70 66 70 56 50 44 37 45 53 54 59 66 73
46 51 54 62 69 66 68 77 84 71 63 42 40 43 40 39 41 44 46 49 39 41
56 56 55 54 56 57 64 74 62 69 72 58 33 38 30 28 29 30 32 28 26 24
52 48 45 43 43 44 46 40 56 54 52 40 35 32 22 25 27 27 26 22 23 23
44 46 40 34 35 42 33 20 24 58 55 37 35 28 21 26 30 31 31 29 31 28
38 28 28 29 34 35 49 40 31 48 42 27 36 29 30 29 24 25 30 30 32 31
30 22 21 26 27 35 39 36 33 67 59 36 38 27 24 29 25 26 29 34 33 33
26 22 31 29 24 30 31 33 44 45 48 41 42 32 29 34 31 30 32 34 33 32
28 19 23 27 27 28 25 22 26 46 54 45 44 35 33 32 30 38 38 33 32 27
21 22 28 32 27 26 26 31 29 36 41 41 44 36 33 36 37 44 39 36 34 29
20 22 30 31 32 31 36 26 29 43 37 39 33 33 39 38 41 43 40 39 37 33
26 20 29 32 33 32 34 32 31 34 36 35 41 39 37 40 41 37 39 36 36 34
Wind_Direction_500mb
254 251 254 256 257 263 264 268 254 243 240 257 267 261 270 257 248 241 244 245 242 243
268 260 255 258 260 259 263 263 263 250 242 257 274 273 264 267 247 217 255 247 243 252
287 276 263 263 263 260 258 257 261 241 241 257 266 266 271 267 249 241 237 242 242 239
290 279 270 264 265 263 250 251 256 242 240 250 260 256 263 256 241 242 243 240 226 228
293 287 278 268 264 262 258 258 239 261 257 231 247 246 226 219 219 208 208 209 211 205
301 294 284 277 275 262 227 255 267 250 226 231 226 221 225 220 210 203 209 217 213 212
304 296 287 280 274 232 219 256 226 216 200 227 220 225 229 217 213 216 220 218 206 195
309 303 286 273 258 249 235 258 227 188 199 215 228 228 255 221 216 209 210 203 195 191
303 267 262 262 259 242 242 231 219 208 212 239 230 233 216 214 223 223 212 197 191 194
290 249 251 249 245 239 253 230 220 211 219 227 224 239 227 219 214 216 205 201 202 211
283 248 244 242 247 234 247 216 220 216 215 230 225 234 234 218 208 205 200 203 208 216
277 250 245 249 230 237 232 233 216 212 215 219 222 222 209 207 205 203 202 203 203 209
279 247 246 242 237 233 224 236 226 217 227 239 228 206 211 213 205 203 199 207 208 213
276 263 236 235 235 229 235 234 226 219 217 227 211 213 206 203 201 205 207 212 218 221
Wind_Speed_850mb
103 103 95 92 80 64 74 72 62 78 77 81 83 86 86 88 90 79 60 56 57 59
82 84 89 86 79 74 74 75 63 69 58 61 66 64 62 72 49 50 65 60 64 68
46 54 68 74 74 77 74 76 69 70 66 70 56 50 44 37 45 53 54 59 66 73
46 51 54 62 69 66 68 77 84 71 63 42 40 43 40 39 41 44 46 49 39 41
56 56 55 54 56 57 64 74 62 69 72 58 33 38 30 28 29 30 32 28 26 24
52 48 45 43 43 44 46 40 56 54 52 40 35 32 22 25 27 27 26 22 23 23
44 46 40 34 35 42 33 20 24 58 55 37 35 28 21 26 30 31 31 29 31 28
38 28 28 29 34 35 49 40 31 48 42 27 36 29 30 29 24 25 30 30 32 31
30 22 21 26 27 35 39 36 33 67 59 36 38 27 24 29 25 26 29 34 33 33
26 22 31 29 24 30 31 33 44 45 48 41 42 32 29 34 31 30 32 34 33 32
28 19 23 27 27 28 25 22 26 46 54 45 44 35 33 32 30 38 38 33 32 27
21 22 28 32 27 26 26 31 29 36 41 41 44 36 33 36 37 44 39 36 34 29
20 22 30 31 32 31 36 26 29 43 37 39 33 33 39 38 41 43 40 39 37 33
26 20 29 32 33 32 34 32 31 34 36 35 41 39 37 40 41 37 39 36 36 34
Wind_Direction_850mb
254 251 254 256 257 263 264 268 254 243 240 257 267 261 270 257 248 241 244 245 242 243
268 260 255 258 260 259 263 263 263 250 242 257 274 273 264 267 247 217 255 247 243 252
287 276 263 263 263 260 258 257 261 241 241 257 266 266 271 267 249 241 237 242 242 239
290 279 270 264 265 263 250 251 256 242 240 250 260 256 263 256 241 242 243 240 226 228
293 287 278 268 264 262 258 258 239 261 257 231 247 246 226 219 219 208 208 209 211 205
301 294 284 277 275 262 227 255 267 250 226 231 226 221 225 220 210 203 209 217 213 212
304 296 287 280 274 232 219 256 226 216 200 227 220 225 229 217 213 216 220 218 206 195
309 303 286 273 258 249 235 258 227 188 199 215 228 228 255 221 216 209 210 203 195 191
303 267 262 262 259 242 242 231 219 208 212 239 230 233 216 214 223 223 212 197 191 194
290 249 251 249 245 239 253 230 220 211 219 227 224 239 227 219 214 216 205 201 202 211
283 248 244 242 247 234 247 216 220 216 215 230 225 234 234 218 208 205 200 203 208 216
277 250 245 249 230 237 232 233 216 212 215 219 222 222 209 207 205 203 202 203 203 209
279 247 246 242 237 233 224 236 226 217 227 239 228 206 211 213 205 203 199 207 208 213
276 263 236 235 235 229 235 234 226 219 217 227 211 213 206 203 201 205 207 212 218 221